User: anonymous   Login
Location: Caltech
(34.1382°N, 118.1253°W)
Time: 14:46:42
(UTC-08:00)
Language:

SEDSat Delta rocket - Orbit

View from above orbital plane
View from above orbital plane
View from above satellite
View from above satellite

Ground track
Ground track

The orbit data is extracted from the following two-line orbital elements,

1 25510U 98061C   17321.48241150  .00000333  00000-0  48137-4 0  9992
2 25510  31.4361 341.0109 0327988   0.5360 150.6203 14.37276908999384
Epoch (UTC): 17 November 2017 11:34:40
Eccentricity: 0.0327988
inclination: 31.4361°
perigee height: 533 km
apogee height: 1002 km
right ascension of ascending node: 341.0109°
argument of perigee: 0.5360°
revolutions per day: 14.37276908
mean anomaly at epoch: 150.6203°
orbit number at epoch: 99938

The dashed part of the orbit path shows where the satellite is in the earth's shadow,  

DLR